Weather History for Milwaukee, WI

Change the Weather History Date:

Thursday, February 28, 2013

  Actual Average Record
Temperature  
Mean Temperature 30 °F 30 °F  
Max Temperature 34 °F 37 °F 54 °F (1895)
Min Temperature 26 °F 23 °F -12 °F (1884)
Degree Days  
Heating Degree Days 35 35  
Month to date heating degree days 1140 1094  
Since 1 July heating degree days 4725 4980  
Cooling Degree Days 0 0  
Month to date cooling degree days 0 0  
Year to date cooling degree days 0 0  
Moisture  
Dew Point 25 °F    
Average Humidity 79    
Maximum Humidity 89    
Minimum Humidity 69    
Precipitation  
Precipitation 0.01 in 0.06 in 1.18 in (1987)
Month to date precipitation 3.03 1.65  
Year to date precipitation 6.20 3.41  
Snow  
Snow 0.10 in 0.30 in 7.00 in (1890)
Month to date snowfall 25.8 9.8  
Since 1 July snowfall 37.2 37.8  
Snow Depth 8.00 in    
Sea Level Pressure  
Sea Level Pressure 29.92 in    
Wind  
Wind Speed 14 mph (North)    
Max Wind Speed 23 mph    
Max Gust Speed 32 mph    
Visibility 8 miles    
Events Snow    
T = Trace of Precipitation, MM = Missing Value Source: NWS Daily Summary

Daily Weather History Graph

Daily Weather History Graph

Search for Another Location

Airport:

Trip Planner

Search our weather history database for the weather conditions in past years. The results will help you decide how hot, cold, wet, or windy it might be!

Date:

Astronomy

Feb. 28, 2013 Rise Set
Actual Time 6:28 AM CST 5:40 PM CST
Civil Twilight 6:00 AM CST 6:08 PM CST
Nautical Twilight 5:27 AM CST 6:41 PM CST
Astronomical Twilight 4:54 AM CST 7:14 PM CST
Moon 9:13 PM CST 7:32 AM CST
Length of Visible Light 12h 08m
Length of Day
11h 11m
Waning Gibbous, 90% of the Moon is Illuminated
Feb 28
Waning Gibbous
Mar 4
Last Quarter
Mar 11
New
Mar 19
First Quarter
Mar 27
Full

Hourly Weather History & Observations

Time (CST) Temp. Windchill Dew Point Humidity Pressure Visibility Wind Dir Wind Speed Gust Speed Precip Events Conditions
12:00 AM 33.8 °F 26.4 °F 30.2 °F 87% 29.72 in 1.8 mi NNW 9.2 mph - 0.00 in Snow Light Snow
12:07 AM 33.8 °F 25.8 °F 30.2 °F 87% 29.71 in 2.0 mi North 10.4 mph - 0.00 in Snow Light Snow
12:29 AM 33.8 °F 25.3 °F 30.2 °F 87% 29.72 in 2.5 mi NNW 11.5 mph - 0.00 in Snow Light Snow
12:37 AM 33.8 °F 24.8 °F 30.2 °F 87% 29.72 in 6.0 mi NNW 12.7 mph - 0.00 in Snow Light Snow
12:52 AM 33.1 °F 24.9 °F 30.9 °F 92% 29.75 in 6.0 mi NNW 10.4 mph 19.6 mph 0.00 in   Overcast
1:52 AM 33.8 °F 25.8 °F 30.2 °F 87% 29.74 in 4.0 mi NNW 10.4 mph 19.6 mph N/A Snow Light Snow
2:52 AM 33.1 °F 24.4 °F 30.0 °F 89% 29.78 in 10.0 mi North 11.5 mph - 0.00 in   Overcast
3:35 AM 33.8 °F 24.8 °F 28.4 °F 81% 29.76 in 10.0 mi North 12.7 mph 21.9 mph N/A   Overcast
3:52 AM 33.1 °F 23.4 °F 28.9 °F 85% 29.79 in 10.0 mi North 13.8 mph 21.9 mph N/A   Overcast
4:52 AM 33.1 °F 23.9 °F 28.9 °F 85% 29.82 in 10.0 mi NNW 12.7 mph 21.9 mph N/A   Overcast
5:20 AM 33.8 °F 24.3 °F 28.4 °F 81% 29.80 in 10.0 mi North 13.8 mph 20.7 mph N/A   Overcast
5:52 AM 33.1 °F 22.2 °F 28.9 °F 85% 29.83 in 10.0 mi North 17.3 mph 21.9 mph N/A   Overcast
6:52 AM 33.1 °F 23.4 °F 28.9 °F 85% 29.86 in 10.0 mi North 13.8 mph - N/A   Overcast
7:52 AM 32.0 °F 22.1 °F 28.9 °F 88% 29.90 in 9.0 mi North 13.8 mph 23.0 mph 0.00 in   Overcast
8:52 AM 33.1 °F 21.9 °F 27.0 °F 78% 29.91 in 10.0 mi North 18.4 mph 27.6 mph N/A   Overcast
9:52 AM 34.0 °F 22.7 °F 27.0 °F 75% 29.93 in 10.0 mi North 19.6 mph 27.6 mph N/A   Overcast
10:52 AM 34.0 °F 22.4 °F 26.1 °F 73% 29.95 in 10.0 mi North 20.7 mph 28.8 mph 0.00 in   Overcast
11:52 AM 33.1 °F 23.9 °F 26.1 °F 75% 29.96 in 10.0 mi NNE 12.7 mph 21.9 mph 0.00 in Snow Light Snow
12:52 PM 33.1 °F 23.4 °F 25.0 °F 72% 29.97 in 10.0 mi North 13.8 mph 19.6 mph 0.00 in   Overcast
1:52 PM 33.1 °F 22.2 °F 25.0 °F 72% 29.98 in 10.0 mi NNE 17.3 mph - N/A   Overcast
2:52 PM 30.9 °F 20.2 °F 24.1 °F 76% 30.01 in 10.0 mi NNE 15.0 mph 25.3 mph N/A   Overcast
3:52 PM 30.0 °F 18.7 °F 23.0 °F 75% 30.03 in 8.0 mi North 16.1 mph 24.2 mph N/A   Overcast
4:52 PM 30.0 °F 20.0 °F 21.0 °F 69% 30.05 in 10.0 mi North 12.7 mph 21.9 mph N/A   Overcast
5:52 PM 28.9 °F 18.2 °F 21.0 °F 72% 30.07 in 9.0 mi North 13.8 mph 20.7 mph 0.00 in Snow Light Snow
6:44 PM 28.4 °F 17.0 °F 19.4 °F 69% 30.06 in 9.0 mi North 15.0 mph 25.3 mph N/A Snow Light Snow
6:52 PM 28.0 °F 16.5 °F 19.9 °F 72% 30.09 in 9.0 mi North 15.0 mph 24.2 mph 0.00 in Snow Light Snow
7:52 PM 28.0 °F 18.1 °F 19.0 °F 69% 30.10 in 9.0 mi North 11.5 mph 20.7 mph 0.00 in Snow Light Snow
8:52 PM 27.0 °F 13.9 °F 19.9 °F 75% 30.11 in 8.0 mi North 18.4 mph 23.0 mph 0.00 in Snow Light Snow
9:52 PM 26.1 °F 14.5 °F 19.9 °F 78% 30.11 in 9.0 mi North 13.8 mph 21.9 mph 0.00 in Snow Light Snow
10:52 PM 26.1 °F 15.6 °F 19.9 °F 78% 30.10 in 9.0 mi NNW 11.5 mph 20.7 mph 0.00 in Snow Light Snow
11:52 PM 26.1 °F 15.0 °F 19.9 °F 78% 30.09 in 9.0 mi North 12.7 mph - 0.00 in Snow Light Snow